CW5039 Weather Reports


Display with metric or nautical units.
time (UTC)temp
F
wind
direction
speed
MPH
gust
MPH
rain 1hr
in
rain 24hr
in
rain mn
in
humidity
%
barometer
mb
20260502151406 40 294 0.0 1.0 0.00 0.00 0.00 94 1034.5
20260502150405 40 296 0.0 0.0 0.00 0.00 0.00 94 1034.5
20260502123406 41 337 0.0 0.0 0.00 0.00 0.00 94 1034.4
20260502121906 40 337 0.0 0.0 0.00 0.00 0.00 93 1034.3
20260502113906 43 337 0.0 0.0 0.00 0.00 0.00 94 1034.0
20260502112406 41 337 0.0 0.0 0.00 0.00 0.00 93 1034.0
20260502111406 41 337 0.0 0.0 0.00 0.00 0.00 92 1034.0
20260502105906 43 337 0.0 0.0 0.00 0.00 0.00 93 1034.0
20260502104404 43 337 0.0 0.0 0.00 0.00 0.00 92 1034.0
20260502103905 43 337 0.0 0.0 0.00 0.00 0.00 92 1034.0
20260502103406 44 337 0.0 0.0 0.00 0.00 0.00 93 1034.0
20260502102906 44 337 0.0 0.0 0.00 0.00 0.00 92 1034.0
20260502102406 45 337 0.0 0.0 0.00 0.00 0.00 92 1033.9
20260502100905 46 337 0.0 0.0 0.00 0.00 0.00 93 1033.8
20260502090906 47 319 0.0 0.0 0.00 0.00 0.00 92 1033.1
20260502090406 47 319 0.0 0.0 0.00 0.00 0.00 91 1033.1
20260502071405 50 126 0.0 0.0 0.00 0.00 0.00 84 1032.6
20260502070905 50 126 0.0 0.0 0.00 0.00 0.00 84 1032.5
20260502064405 51 126 1.0 2.0 0.00 0.00 0.00 83 1032.4
20260502062905 52 126 2.0 2.0 0.00 0.00 0.00 81 1032.3
20260502062406 53 126 2.0 3.0 0.00 0.00 0.00 80 1032.2
20260502061905 54 125 1.0 3.0 0.00 0.00 0.00 79 1032.2
20260502055905 55 124 1.0 3.0 0.00 0.00 0.00 76 1032.0
20260502055405 57 123 1.0 3.0 0.00 0.00 0.00 73 1031.9
20260502053405 59 123 1.0 2.0 0.00 0.00 0.00 70 1031.9
20260502052906 59 123 2.0 2.0 0.00 0.00 0.00 70 1031.9
20260502051905 61 123 2.0 3.0 0.00 0.00 0.00 67 1031.9
20260502051405 62 127 2.0 3.0 0.00 0.00 0.00 66 1031.9
20260502050405 62 53 0.0 0.0 0.00 0.00 0.00 65 1031.9
20260502045904 62 53 0.0 0.0 0.00 0.00 0.00 67 1031.9
20260502045406 62 53 0.0 0.0 0.00 0.00 0.00 67 1032.0
20260502044905 62 53 0.0 0.0 0.00 0.00 0.00 68 1031.9
20260502041905 64 52 0.0 0.0 0.00 0.00 0.00 66 1032.0
20260502035406 64 51 0.0 0.0 0.00 0.00 0.00 63 1032.1
20260502034405 65 51 0.0 0.0 0.00 0.00 0.00 62 1032.2
20260502033905 66 51 0.0 0.0 0.00 0.00 0.00 63 1032.2
20260502032906 66 51 0.0 0.0 0.00 0.00 0.00 63 1032.2
20260502032405 66 51 0.0 0.0 0.00 0.00 0.00 64 1032.2
20260502031406 66 51 1.0 2.0 0.00 0.00 0.00 61 1032.2
20260502030405 65 161 0.0 2.0 0.00 0.00 0.00 63 1032.3
20260502025905 66 93 2.0 5.0 0.00 0.00 0.00 62 1032.4
20260502024906 66 128 0.0 2.0 0.00 0.00 0.00 61 1032.5
20260502024405 67 128 2.0 3.0 0.00 0.00 0.00 62 1032.5
20260502022905 66 144 2.0 3.0 0.00 0.00 0.00 60 1032.6
20260502021904 66 136 0.0 2.0 0.00 0.00 0.00 61 1032.7
20260502020405 65 134 1.0 3.0 0.00 0.00 0.00 64 1032.8
20260502015904 65 142 2.0 3.0 0.00 0.00 0.00 66 1032.9
20260502012405 65 151 4.0 5.0 0.00 0.00 0.00 64 1033.2
20260502011405 65 142 1.0 3.0 0.00 0.00 0.00 66 1033.4
20260502010905 65 110 2.0 5.0 0.00 0.00 0.00 66 1033.5
20260502010406 65 130 2.0 5.0 0.00 0.00 0.00 67 1033.5
20260502004405 64 109 2.0 5.0 0.00 0.00 0.00 67 1033.9
20260502002905 64 151 3.0 3.0 0.00 0.00 0.00 69 1034.1
20260502001405 63 85 1.0 3.0 0.00 0.00 0.00 68 1034.4
20260501235405 62 107 2.0 3.0 0.00 0.00 0.00 72 1034.7
20260501234904 62 112 5.0 7.0 0.00 0.00 0.00 71 1034.8
20260501232405 61 141 3.0 6.0 0.00 0.00 0.00 71 1035.1
20260501225906 59 185 1.0 5.0 0.00 0.00 0.00 75 1035.4
20260501225405 59 211 2.0 5.0 0.00 0.00 0.00 75 1035.5
20260501223905 58 167 5.0 9.0 0.00 0.00 0.00 80 1035.4
20260501223405 58 187 5.0 8.0 0.00 0.00 0.00 79 1035.4
20260501222405 57 201 6.0 10.0 0.00 0.00 0.00 80 1035.4
20260501220905 56 202 3.0 6.0 0.00 0.00 0.00 83 1035.5
20260501215405 55 229 3.0 5.0 0.00 0.00 0.00 85 1035.6
20260501213906 54 208 3.0 6.0 0.00 0.00 0.00 88 1035.6
20260501211905 52 190 5.0 6.0 0.00 0.00 0.00 91 1035.7
20260501211405 52 187 5.0 6.0 0.00 0.00 0.00 93 1035.8
20260501210905 51 193 4.0 6.0 0.00 0.00 0.00 93 1035.8
20260501210405 51 203 2.0 6.0 0.00 0.00 0.00 94 1035.8
20260501205905 50 200 4.0 6.0 0.00 0.00 0.00 95 1035.7
20260501205405 49 182 2.0 5.0 0.00 0.00 0.00 95 1035.8
20260501204404 48 196 4.0 10.0 0.00 0.00 0.00 95 1035.8
20260501203905 48 200 5.0 10.0 0.00 0.00 0.00 95 1035.8
20260501201905 46 216 2.0 3.0 0.00 0.00 0.00 95 1035.7
20260501201405 45 230 1.0 3.0 0.00 0.00 0.00 95 1035.7
20260501200906 45 217 2.0 3.0 0.00 0.00 0.00 95 1035.6
20260501193906 41 213 2.0 3.0 0.00 0.00 0.00 95 1035.2
20260501193406 41 207 2.0 3.0 0.00 0.00 0.00 95 1035.2
20260501192906 40 205 2.0 3.0 0.00 0.00 0.00 95 1035.1
20260501191906 39 223 1.0 2.0 0.00 0.00 0.00 95 1035.2
20260501191405 38 226 1.0 2.0 0.00 0.00 0.00 95 1035.1
20260501190406 38 225 0.0 1.0 0.00 0.00 0.00 95 1035.1
20260501185907 38 225 0.0 2.0 0.00 0.00 0.00 94 1035.1
20260501184906 38 227 1.0 2.0 0.00 0.00 0.00 94 1035.1
20260501183407 39 240 2.0 3.0 0.00 0.00 0.00 94 1035.1
20260501181906 40 223 0.0 1.0 0.00 0.00 0.00 94 1035.0
20260501180406 40 225 1.0 3.0 0.00 0.00 0.00 94 1035.0
20260501175906 41 227 5.0 6.0 0.00 0.00 0.00 94 1034.9
20260501174906 39 240 2.0 3.0 0.00 0.00 0.00 94 1035.0
20260501174406 39 236 2.0 3.0 0.00 0.00 0.00 94 1035.0
20260501173906 39 229 1.0 3.0 0.00 0.00 0.00 94 1035.1
20260501172906 40 223 1.0 2.0 0.00 0.00 0.00 94 1035.0
20260501170906 39 226 1.0 3.0 0.00 0.00 0.00 94 1035.0
20260501165406 40 235 1.0 2.0 0.00 0.00 0.00 94 1034.9
20260501164906 41 236 1.0 2.0 0.00 0.00 0.00 94 1034.9
20260501164406 41 236 1.0 2.0 0.00 0.00 0.00 94 1034.9
20260501161905 41 223 1.0 3.0 0.00 0.00 0.00 94 1035.0
20260501161406 41 215 2.0 3.0 0.00 0.00 0.00 94 1035.0